Weather History for Liberal, KS

Change the Weather History Date:

Thursday, October 20, 2011

  Actual Average Record
Temperature  
Mean Temperature 52 °F -  
Max Temperature 69 °F 70 °F 91 °F (2007)
Min Temperature 35 °F 40 °F 26 °F (1989)
Degree Days  
Heating Degree Days 13    
Growing Degree Days 2 (Base 50)    
Moisture  
Dew Point 26 °F    
Average Humidity 42    
Maximum Humidity 65    
Minimum Humidity 21    
Precipitation  
Precipitation 0.00 in - - ()
Sea Level Pressure  
Sea Level Pressure 30.03 in    
Wind  
Wind Speed 9 mph (SE)    
Max Wind Speed 18 mph    
Max Gust Speed 22 mph    
Visibility 10 miles    
Events      
Averages and records for this station are not official NWS values.
T = Trace of Precipitation, MM = Missing Value Source: NWS Daily Summary

Daily Weather History Graph

Daily Weather History Graph

Search for Another Location

Airport:

Trip Planner

Search our weather history database for the weather conditions in past years. The results will help you decide how hot, cold, wet, or windy it might be!

Date:

Astronomy

Oct. 20, 2011 Rise Set
Actual Time 7:55 AM CDT 7:00 PM CDT
Civil Twilight 7:29 AM CDT 7:27 PM CDT
Nautical Twilight 6:59 AM CDT 7:57 PM CDT
Astronomical Twilight 6:29 AM CDT 8:27 PM CDT
Moon 12:52 AM CDT (10/20) 3:01 PM CDT (10/20)
Length of Visible Light 11h 57m
Length of Day
11h 04m
Last Quarter, 44% of the Moon is Illuminated
Oct 20
Last Quarter
Oct 26
New
Nov 2
First Quarter
Nov 10
Full
Nov 18
Last Quarter

Hourly Weather History & Observations

Time (CDT) Temp. Windchill Dew Point Humidity Pressure Visibility Wind Dir Wind Speed Gust Speed Precip Events Conditions
12:15 AM 44.6 °F 39.2 °F 24.8 °F 46% 30.08 in 10.0 mi ESE 10.4 mph - N/A   Clear
12:35 AM 44.6 °F 39.2 °F 24.8 °F 46% 30.07 in 10.0 mi ESE 10.4 mph - N/A   Clear
12:55 AM 44.6 °F 39.2 °F 24.8 °F 46% 30.08 in 10.0 mi ESE 10.4 mph - N/A   Clear
1:15 AM 42.8 °F 37.5 °F 23.0 °F 46% 30.08 in 10.0 mi SE 9.2 mph - N/A   Clear
1:35 AM 39.2 °F 33.6 °F 23.0 °F 52% 30.08 in 10.0 mi SE 8.1 mph - N/A   Clear
1:55 AM 39.2 °F 33.6 °F 23.0 °F 52% 30.07 in 10.0 mi SSE 8.1 mph - N/A   Clear
2:15 AM 37.4 °F 31.4 °F 21.2 °F 52% 30.07 in 10.0 mi SE 8.1 mph - N/A   Clear
2:35 AM 37.4 °F 30.8 °F 23.0 °F 56% 30.06 in 10.0 mi SE 9.2 mph - N/A   Clear
2:55 AM 37.4 °F 31.4 °F 23.0 °F 56% 30.07 in 10.0 mi SSE 8.1 mph - N/A   Clear
3:15 AM 37.4 °F 32.1 °F 23.0 °F 56% 30.07 in 10.0 mi SSE 6.9 mph - N/A   Clear
3:35 AM 35.6 °F 29.2 °F 21.2 °F 56% 30.06 in 10.0 mi SSE 8.1 mph - N/A   Clear
3:55 AM 37.4 °F 31.4 °F 23.0 °F 56% 30.05 in 10.0 mi SSE 8.1 mph - N/A   Clear
4:15 AM 35.6 °F 29.2 °F 23.0 °F 60% 30.04 in 10.0 mi SE 8.1 mph - N/A   Clear
4:35 AM 35.6 °F 28.6 °F 21.2 °F 56% 30.03 in 10.0 mi SE 9.2 mph - N/A   Clear
4:55 AM 35.6 °F 28.0 °F 24.8 °F 65% 30.03 in 10.0 mi SE 10.4 mph - N/A   Clear
5:15 AM 37.4 °F 31.4 °F 24.8 °F 60% 30.02 in 10.0 mi SE 8.1 mph - N/A   Clear
5:35 AM 35.6 °F 28.6 °F 23.0 °F 60% 30.02 in 10.0 mi ESE 9.2 mph - N/A   Clear
5:55 AM 37.4 °F 30.3 °F 24.8 °F 60% 30.02 in 10.0 mi SE 10.4 mph - N/A   Clear
6:15 AM 39.2 °F 32.0 °F 24.8 °F 56% 30.02 in 10.0 mi SE 11.5 mph - N/A   Clear
6:35 AM 39.2 °F 32.0 °F 24.8 °F 56% 30.02 in 10.0 mi ESE 11.5 mph - N/A   Clear
6:55 AM 39.2 °F 32.5 °F 24.8 °F 56% 30.02 in 10.0 mi ESE 10.4 mph - N/A   Clear
7:15 AM 37.4 °F 30.3 °F 24.8 °F 60% 30.03 in 10.0 mi ESE 10.4 mph - N/A   Clear
7:35 AM 39.2 °F 31.6 °F 24.8 °F 56% 30.02 in 10.0 mi ESE 12.7 mph - N/A   Clear
7:55 AM 39.2 °F 31.2 °F 24.8 °F 56% 30.01 in 10.0 mi ESE 13.8 mph - N/A   Clear
8:15 AM 39.2 °F 31.2 °F 24.8 °F 56% 30.01 in 10.0 mi SE 13.8 mph - N/A   Clear
8:35 AM 39.2 °F 32.0 °F 26.6 °F 61% 30.02 in 10.0 mi SE 11.5 mph - N/A   Clear
8:55 AM 42.8 °F 36.2 °F 26.6 °F 53% 30.02 in 10.0 mi SE 12.7 mph - N/A   Clear
9:15 AM 44.6 °F 38.1 °F 26.6 °F 49% 30.02 in 10.0 mi SSE 13.8 mph - N/A   Clear
9:35 AM 46.4 °F 40.1 °F 28.4 °F 50% 30.02 in 10.0 mi SSE 15.0 mph 19.6 mph N/A   Clear
9:55 AM 48.2 °F - 28.4 °F 46% 30.02 in 10.0 mi SSE 15.0 mph - N/A   Clear
10:15 AM 50.0 °F - 28.4 °F 43% 30.02 in 10.0 mi SSE 17.3 mph 21.9 mph N/A   Clear
10:35 AM 53.6 °F - 28.4 °F 38% 30.02 in 10.0 mi South 17.3 mph 20.7 mph N/A   Clear
10:55 AM 53.6 °F - 28.4 °F 38% 30.03 in 10.0 mi South 17.3 mph - N/A   Clear
11:15 AM 55.4 °F - 28.4 °F 36% 30.02 in 10.0 mi South 18.4 mph - N/A   Clear
11:35 AM 57.2 °F - 28.4 °F 33% 30.03 in 10.0 mi South 17.3 mph - N/A   Clear
11:55 AM 57.2 °F - 28.4 °F 33% 30.02 in 10.0 mi South 12.7 mph 17.3 mph N/A   Clear
12:15 PM 59.0 °F - 28.4 °F 31% 30.02 in 10.0 mi South 8.1 mph - N/A   Clear
12:35 PM 60.8 °F - 28.4 °F 29% 30.02 in 10.0 mi SSW 8.1 mph - N/A   Clear
12:55 PM 60.8 °F - 28.4 °F 29% 30.01 in 10.0 mi SW 6.9 mph - N/A   Clear
2:55 PM 66.2 °F - 28.4 °F 24% 29.99 in 10.0 mi South 4.6 mph - N/A   Clear
3:15 PM 66.2 °F - 28.4 °F 24% 29.98 in 10.0 mi Calm Calm - N/A   Clear
3:35 PM 66.2 °F - 28.4 °F 24% 29.99 in 10.0 mi SE 3.5 mph - N/A   Clear
3:55 PM 66.2 °F - 28.4 °F 24% 29.98 in 10.0 mi Calm Calm - N/A   Clear
4:15 PM 68.0 °F - 28.4 °F 23% 29.99 in 10.0 mi SSE 4.6 mph - N/A   Clear
4:35 PM 68.0 °F - 28.4 °F 23% 29.99 in 10.0 mi Calm Calm - N/A   Clear
4:55 PM 68.0 °F - 28.4 °F 23% 29.99 in 10.0 mi East 3.5 mph - N/A   Clear
5:15 PM 69.8 °F - 28.4 °F 21% 29.99 in 10.0 mi ESE 3.5 mph - N/A   Clear
5:35 PM 69.8 °F - 28.4 °F 21% 29.99 in 10.0 mi SE 5.8 mph - N/A   Clear
5:55 PM 69.8 °F - 28.4 °F 21% 30.00 in 10.0 mi ESE 4.6 mph - N/A   Clear
6:15 PM 66.2 °F - 28.4 °F 24% 30.01 in 10.0 mi Calm Calm - N/A   Clear
6:35 PM 66.2 °F - 28.4 °F 24% 30.01 in 10.0 mi Calm Calm - N/A   Clear
6:55 PM 64.4 °F - 28.4 °F 26% 30.02 in 10.0 mi SSW 3.5 mph - N/A   Clear
7:15 PM 62.6 °F - 26.6 °F 26% 30.02 in 10.0 mi South 3.5 mph - N/A   Clear
7:35 PM 59.0 °F - 26.6 °F 29% 30.03 in 10.0 mi SSE 3.5 mph - N/A   Clear
7:55 PM 57.2 °F - 24.8 °F 29% 30.03 in 10.0 mi SE 5.8 mph - N/A   Clear
8:15 PM 57.2 °F - 26.6 °F 31% 30.04 in 10.0 mi SE 5.8 mph - N/A   Clear
8:35 PM 55.4 °F - 28.4 °F 36% 30.04 in 10.0 mi SE 6.9 mph - N/A   Clear
8:55 PM 51.8 °F - 26.6 °F 38% 30.05 in 10.0 mi SSE 8.1 mph - N/A   Clear
9:15 PM 51.8 °F - 26.6 °F 38% 30.05 in 10.0 mi SE 10.4 mph - N/A   Clear
9:35 PM 51.8 °F - 26.6 °F 38% 30.06 in 10.0 mi SSE 8.1 mph - N/A   Clear
9:55 PM 50.0 °F - 26.6 °F 40% 30.06 in 10.0 mi SSE 6.9 mph - N/A   Clear
10:15 PM 48.2 °F - 26.6 °F 43% 30.07 in 10.0 mi SSE 5.8 mph - N/A   Clear
10:35 PM 48.2 °F - 26.6 °F 43% 30.08 in 10.0 mi SSE 6.9 mph - N/A   Clear
10:55 PM 48.2 °F - 26.6 °F 43% 30.08 in 10.0 mi SSE 5.8 mph - N/A   Clear
11:15 PM 46.4 °F 42.9 °F 26.6 °F 46% 30.08 in 10.0 mi South 6.9 mph - N/A   Clear
11:35 PM 46.4 °F 42.9 °F 26.6 °F 46% 30.08 in 10.0 mi South 6.9 mph - N/A   Clear
11:55 PM 44.6 °F 39.7 °F 24.8 °F 46% 30.08 in 10.0 mi SSW 9.2 mph - N/A   Clear